Regional Weather Roundup
Issued by NWS Charleston, WV

Current Version | Previous Version | Text Only | Print | Product List | Glossary On
Versions: 1 2 3 4 5 6 7 8 9 10 11 12 13 14 15 16 17 18 19 20 21 22 23 24 25 26 27 28 29 30 31 32 33 34 35 36 37 38 39 40 41 42 43 44 45 46 47 48 49 50
000
ASUS41 KRLX 210710
RWRRLX
West Virginia Regional Weather Roundup
National Weather Service Charleston WV
300 AM EDT TUE APR 21 2015

Note: "fair" indicates few or no clouds below 12,000 feet with no
significant weather and/or obstructions to visibility.

WVZ003-210800-
Northern Panhandle of West Virginia

CITY           SKY/WX    TMP DP  RH WIND       PRES   REMARKS
WHEELING       NOT AVBL
$$

WVZ009-210800-
Northwest West Virginia

CITY           SKY/WX    TMP DP  RH WIND       PRES   REMARKS
PARKERSBURG    MOCLDY    49  34  56 W8        29.80S
$$

WVZ006-210800-
Western West Virginia

CITY           SKY/WX    TMP DP  RH WIND       PRES   REMARKS
HUNTINGTON     MOCLDY    49  34  56 W7        29.82S
$$

WVZ015-210800-
West Central West Virginia

CITY           SKY/WX    TMP DP  RH WIND       PRES   REMARKS
CHARLESTON     CLOUDY    53  35  50 W8G17     29.80S
$$

WVZ022-031-210800-
North Central West Virginia

CITY           SKY/WX    TMP DP  RH WIND       PRES   REMARKS
CLARKSBURG     CLOUDY    48  44  86 S7        29.75S
MORGANTOWN     CLOUDY    49  40  71 SW5       29.75S
$$

WVZ025-035-042-045-210800-
Southern West Virginia

CITY           SKY/WX    TMP DP  RH WIND       PRES   REMARKS
BECKLEY        MOCLDY    46  41  82 W8        29.80F
LOGAN          CLOUDY    50  41  71 VRB6G18   29.80R
BLUEFIELD      CLOUDY    47  40  76 W12G21    29.82S
LEWISBURG      CLOUDY    50  40  69 NW5       29.78F
$$

WVZ047-210800-
Northern Mountains of West Virginia

CITY           SKY/WX    TMP DP  RH WIND       PRES   REMARKS
ELKINS         LGT RAIN  45  37  73 MISG      29.78F
$$

WVZ052-210800-
Eastern Panhandle of West Virginia

CITY           SKY/WX    TMP DP  RH WIND       PRES   REMARKS
MARTINSBURG    CLOUDY    58  44  60 W15       29.64R
PETERSBURG     CLOUDY    53  36  52 W12G23    29.76R
$$


USA.gov is the U.S. government's official web portal to all federal, state and local government web resources and services.